sat.trackr.live / text

‹ back to catalog

STARLINK-3807

NORAD 52353 · 2022-045Y

PAYLOAD ACTIVE UNKNOWN

§ Identity

Operator
Country
US
Launch date
2022-04-29
Launch site
AFETR
Launch vehicle
Mass (kg)
RCS (m²)

Purposes: comms

External: N2YO · Heavens-Above · Gunter

§ Orbital elements

Epoch: 2026-09-19T17:21:23.104512Z

Period
93.90 min
Inclination
53.1614°
Eccentricity
0.0001196
Mean motion
15.33553571 rev/d
Perigee alt
464.4 km
Apogee alt
466.0 km
Semi-major
6,843.4 km
B*
2.2728e-5
RAAN
33.5307°
Arg perigee
76.5765°
Mean anomaly
283.5370°
Rev number
24,527

§ Raw data

STARLINK-38071 52353U 22045Y   26262.72318408  .00000375  00000+0  22728-4 0  99912 52353  53.1614  33.5307 0001196  76.5765 283.5370 15.33553571245270

JSON: /api/v1/satellites/52353 · /tle

For live sub-satellite position, see the globe view (requires WebGL).

§ Visibility from observer

Set your observer location to see the next 7 days of passes ≥ 10°. The values pass through the URL so the page stays shareable.

No JS? Fill the form by hand. The geolocation button needs JavaScript.